Location: Bussy-Saint-Georges
(48.8410°N, 2.7017°E)
Time: 22:46:27
(UTC+00:00)

Cosmos 2322 Rocket - Pass Details

Date: 18 October 2021
Orbit: 832 x 852 km, 71.0° (Epoch: 07 December)

Event Time Altitude Azimuth Distance (km) Brightness Sun altitude
Rises 17:51:51 0° 150° (SSE) 3,365 5.1 -10.3°
Reaches altitude 10° 17:55:33 10° 125° (SE) 2,437 4.1 -10.9°
Enters shadow 17:57:26 13° 105° (ESE) 2,214 3.8 -11.2°
